Terug naar catalogus

STARLINK-33632

ActiefCommunicatieVLEO
NORAD 63577·PAYLOAD·🇺🇸 United States

Gelanceerd Apr 14, 2025 vanaf Cape Canaveral Space Force Station

Loading…

Volgende Passages (komende 24 uur)

TLE

VersSource: CelesTrak SupGP

Epoch: Sep 14, 2026, 21:21 UTC

1 63577C 25076J   26257.89006944 -.00026796  00000+0 -97081-3 0  2576
2 63577  43.0012 333.4803 0001527 266.7142  64.2279 15.27582578    18

Volg STARLINK-33632 in realtime met AllMySat

Download on the App Store